Location: Unspecified
(0.0000°N, 0.0000°E)
Time: 16:21:47
(UTC+00:00)

Vanguard 2 Rocket - Pass Details

Date: 24 November 2019
Orbit: 554 x 3326 km, 32.9° (Epoch: 13 December)

Event Time Altitude Azimuth Distance (km) Brightness Sun altitude
Rises 06:35:04 0° 311° (NW) 4,103 9.7 11.3°
Reaches altitude 10° 06:37:22 10° 314° (NW) 3,405 9.3 11.9°
Maximum altitude 06:46:28 73° 38° (NE) 2,064 9.0 14.0°
Drops below altitude 10° 07:02:50 10° 120° (ESE) 5,772 13.2 17.8°
Sets 07:08:02 0° 122° (ESE) 7,056 13.0 19.0°
